Date String (YYYY-MM-DD hh:mm:ss) UTC,Instrument flags,Ambient pressure (hPa),Sample flow (lpm),Bypass flow (lpm),Sample temperature (°C),Ambient temperature (°C),ASC tube jacket temperature (°C),LED temperature (°C),Box temperature (°C),Sample RH (%),Span deviation,Mass concentration (μg/m³),Mass concentration (μg/m³),Mass concentration (μg/m³)
DateTimeUTC,F1_M11,P_M11,Q1_M11,Q2_M11,T1_M11,T2_M11,T3_M11,T4_M11,T5_M11,U1_M11,ZSPAN_M11,X0_M11,X2_M11,X1_M11
2021-09-07 17:00:00,,0834.1,5.00,0.00,29.7,28.7,00.0,38.6,31.5,11.6,0000.2,0054.67,0035.84,0033.46
2021-09-07 17:01:00,,0834.1,5.00,0.00,29.7,28.5,00.0,38.6,31.5,11.7,0000.3,0054.44,0035.80,0033.43
2021-09-07 17:02:00,,0834.1,5.01,0.00,29.6,26.8,00.0,38.6,31.0,11.4,0000.4,0054.39,0035.79,0033.38
2021-09-07 17:03:00,,0834.1,5.01,0.00,29.5,26.1,00.0,38.6,30.8,11.7,0000.6,0053.77,0035.66,0033.34
2021-09-07 17:04:00,,0834.1,5.00,0.00,29.4,26.5,00.0,38.6,30.9,11.9,0000.6,0054.30,0035.58,0033.27
2021-09-07 17:05:00,,0834.1,4.99,0.00,29.4,26.9,00.0,38.6,31.0,11.7,0000.5,0053.95,0035.56,0033.25
2021-09-07 17:06:00,,0834.1,4.99,0.00,29.4,27.3,00.0,38.5,31.1,11.8,0000.7,0054.10,0035.55,0033.23
2021-09-07 17:07:00,,0834.1,5.01,0.00,29.4,27.7,00.0,38.5,31.2,11.8,0001.8,0054.30,0035.56,0033.21
2021-09-07 17:08:00,,0834.1,4.98,0.00,29.5,28.0,00.0,38.5,31.2,11.5,0002.3,0055.78,0035.58,0033.21
2021-09-07 17:09:00,,0834.1,5.01,0.00,29.5,28.3,00.0,38.5,31.3,10.8,0002.4,0055.77,0035.51,0033.13
2021-09-07 17:10:00,,0834.1,5.00,0.00,29.6,28.5,00.0,38.5,31.4,10.8,0002.1,0056.07,0035.42,0033.04
2021-09-07 17:11:00,,0834.1,5.00,0.00,29.6,28.6,00.0,38.6,31.5,11.0,0002.1,0054.80,0035.32,0032.95
2021-09-07 17:12:00,,0834.1,5.01,0.00,29.7,28.6,00.0,38.6,31.5,11.3,0001.5,0054.67,0035.24,0032.90
2021-09-07 17:13:00,,0834.1,5.00,0.00,29.6,27.2,00.0,38.6,31.1,11.5,0001.4,0054.66,0035.13,0032.84
2021-09-07 17:14:00,,0834.1,5.00,0.00,29.5,26.1,00.0,38.6,30.8,11.9,0001.4,0053.95,0035.08,0032.78
2021-09-07 17:15:00,,0834.1,5.00,0.00,29.4,26.4,00.0,38.5,30.8,11.7,0001.5,0051.90,0035.04,0032.72
2021-09-07 17:16:00,,0834.0,5.01,0.00,29.3,26.8,00.0,38.5,30.9,11.7,0001.6,0051.16,0035.01,0032.73
2021-09-07 17:17:00,,0834.1,4.99,0.00,29.3,27.2,00.0,38.5,31.0,12.1,0001.3,0051.34,0034.99,0032.76
2021-09-07 17:18:00,,0834.1,5.01,0.00,29.4,27.6,00.0,38.5,31.1,12.5,0000.7,0050.52,0034.94,0032.78
2021-09-07 17:19:00,,0834.1,5.00,0.00,29.4,27.9,00.0,38.5,31.2,12.4,0000.6,0049.27,0034.97,0032.84
2021-09-07 17:20:00,,0834.1,4.99,0.00,29.5,28.2,00.0,38.5,31.3,12.6,0001.3,0049.04,0035.01,0032.94
2021-09-07 17:21:00,,0834.1,5.02,0.00,29.5,28.4,00.0,38.5,31.4,12.3,0001.2,0049.93,0035.13,0033.09
2021-09-07 17:22:00,,0834.1,5.00,0.00,29.6,28.5,00.0,38.5,31.4,12.2,0001.0,0050.48,0035.28,0033.26
2021-09-07 17:23:00,,0834.1,4.99,0.00,29.5,27.3,00.0,38.5,31.1,12.3,0001.3,0050.99,0035.44,0033.42
2021-09-07 17:24:00,,0834.1,5.01,0.00,29.4,26.0,00.0,38.5,30.7,12.6,0001.3,0052.06,0035.64,0033.60
2021-09-07 17:25:00,,0834.0,5.00,0.00,29.3,26.2,00.0,38.5,30.8,12.6,0001.3,0052.61,0035.88,0033.80
2021-09-07 17:26:00,,0834.0,4.99,0.00,29.3,26.6,00.0,38.4,30.9,12.6,0001.4,0053.54,0036.18,0034.04
2021-09-07 17:27:00,,0834.0,5.01,0.00,29.3,27.0,00.0,38.4,31.0,12.7,0001.4,0053.96,0036.31,0034.16
2021-09-07 17:28:00,,0834.0,4.99,0.00,29.3,27.4,00.0,38.4,31.0,12.8,0001.5,0053.50,0036.45,0034.28
2021-09-07 17:29:00,,0834.0,5.00,0.00,29.3,27.8,00.0,38.4,31.1,12.7,0001.8,0054.60,0036.64,0034.42
2021-09-07 17:30:00,,0834.0,5.00,0.00,29.4,28.1,00.0,38.4,31.2,12.5,0002.1,0055.16,0036.71,0034.48
2021-09-07 17:31:00,,0834.0,5.00,0.00,29.4,28.3,00.0,38.4,31.3,12.9,0002.0,0055.68,0036.80,0034.57
2021-09-07 17:32:00,,0834.0,4.99,0.00,29.5,28.5,00.0,38.4,31.4,12.9,0001.9,0055.37,0036.79,0034.59
2021-09-07 17:33:00,,0834.0,5.00,0.00,29.5,28.6,00.0,38.5,31.4,12.9,0002.4,0054.64,0036.80,0034.59
2021-09-07 17:34:00,,0834.0,5.00,0.00,29.6,28.5,00.0,38.5,31.4,12.6,0002.3,0054.95,0036.83,0034.61
2021-09-07 17:35:00,,0833.9,5.01,0.00,29.5,26.8,00.0,38.5,30.9,12.6,0002.0,0054.19,0036.93,0034.66
2021-09-07 17:36:00,,0833.9,5.00,0.00,29.3,25.9,00.0,38.4,30.7,13.0,0001.6,0053.59,0036.97,0034.70
2021-09-07 17:37:00,,0833.9,5.00,0.00,29.3,26.3,00.0,38.4,30.8,13.2,0001.2,0053.53,0036.95,0034.67
2021-09-07 17:38:00,,0833.9,5.00,0.00,29.3,26.7,00.0,38.4,30.9,13.4,0001.1,0053.33,0037.04,0034.72
2021-09-07 17:39:00,,0833.9,4.99,0.00,29.3,27.2,00.0,38.4,31.0,13.1,0001.1,0054.03,0037.27,0034.83
2021-09-07 17:40:00,,0833.8,5.01,0.00,29.3,27.5,00.0,38.4,31.1,13.2,0000.8,0053.72,0037.33,0034.88
2021-09-07 17:41:00,,0833.9,5.00,0.00,29.4,27.9,00.0,38.4,31.2,13.2,0000.4,0053.66,0037.48,0035.02
2021-09-07 17:42:00,,0833.8,4.99,0.00,29.4,28.1,00.0,38.4,31.2,13.5,0000.2,0054.27,0037.71,0035.17
2021-09-07 17:43:00,,0833.8,5.01,0.00,29.5,28.4,00.0,38.4,31.3,13.2,0000.5,0054.20,0037.97,0035.37
2021-09-07 17:44:00,,0833.8,5.00,0.00,29.5,28.6,00.0,38.4,31.4,13.1,0000.5,0054.06,0038.20,0035.56
2021-09-07 17:45:00,,0833.8,5.00,0.00,29.5,28.0,00.0,38.4,31.2,13.0,0000.8,0054.08,0038.43,0035.75
2021-09-07 17:46:00,,0833.8,5.00,0.00,29.4,26.3,00.0,38.4,30.7,13.4,0001.0,0054.54,0038.55,0035.91
2021-09-07 17:47:00,,0833.7,5.01,0.00,29.3,26.0,00.0,38.4,30.6,13.9,0001.4,0056.03,0038.61,0036.00
2021-09-07 17:48:00,,0833.7,4.99,0.00,29.2,26.4,00.0,38.4,30.8,13.4,0001.5,0056.73,0038.65,0036.08
2021-09-07 17:49:00,,0833.7,5.00,0.00,29.2,26.8,00.0,38.4,30.9,13.7,0001.4,0057.37,0038.64,0036.14
2021-09-07 17:50:00,,0833.7,5.00,0.00,29.2,27.3,00.0,38.3,31.0,13.6,0001.6,0056.93,0038.57,0036.19
2021-09-07 17:51:00,,0833.7,5.00,0.00,29.3,27.7,00.0,38.3,31.0,13.8,0002.5,0057.53,0038.59,0036.24
2021-09-07 17:52:00,,0833.6,5.00,0.00,29.3,28.0,00.0,38.3,31.1,13.7,0003.1,0057.51,0038.63,0036.23
2021-09-07 17:53:00,,0833.6,5.00,0.00,29.4,28.2,00.0,38.4,31.2,13.4,0003.0,0056.91,0038.56,0036.22
2021-09-07 17:54:00,,0833.6,5.00,0.00,29.4,28.4,00.0,38.4,31.3,13.3,0002.7,0056.80,0038.56,0036.20
2021-09-07 17:55:00,,0833.6,5.01,0.00,29.5,28.1,00.0,38.4,31.2,13.3,0002.4,0056.80,0038.55,0036.19
2021-09-07 17:56:00,,0833.6,5.01,0.00,29.4,26.4,00.0,38.4,30.8,13.3,0002.2,0056.81,0038.59,0036.21
2021-09-07 17:57:00,,0833.6,5.00,0.00,29.2,25.8,00.0,38.4,30.6,13.5,0001.8,0056.71,0038.56,0036.19
2021-09-07 17:58:00,,0833.6,5.00,0.00,29.2,26.3,00.0,38.3,30.7,13.6,0001.9,0056.01,0038.57,0036.17
2021-09-07 17:59:00,,0833.6,4.99,0.00,29.1,26.7,00.0,38.3,30.8,13.9,0002.0,0055.37,0038.58,0036.20
